Camarillo, CA

5:33 AM PDT on August 27, 2016 (GMT -0700)
Camarillo

Weather History for KCMA - August, 2013

Change the Weather History Date:

Thursday, August 8, 2013

  Actual Average Record
Temperature  
Mean Temperature 66 °F 68 °F  
Max Temperature 73 °F 77 °F 87 °F (1983)
Min Temperature 59 °F 58 °F 49 °F (1950)
Degree Days  
Heating Degree Days 0 0  
Month to date heating degree days 1 0  
Since 1 June heating degree days 3 53  
Since 1 July heating degree days 3 10  
Cooling Degree Days 1 3  
Month to date cooling degree days 6 24  
Year to date cooling degree days 375 149  
Since 1 June cooling degree days 269 118  
Growing Degree Days 16 (Base 50)    
Moisture  
Dew Point 56 °F    
Average Humidity 70    
Maximum Humidity 87    
Minimum Humidity 53    
Precipitation  
Precipitation 0.00 in 0.00 in 0.06 in (1963)
Month to date precipitation 0.00 0.01  
Year to date precipitation 2.19 11.01  
Since 1 July precipitation 0.04  
Sea Level Pressure  
Sea Level Pressure 29.98 in    
Wind  
Wind Speed 5 mph (WSW)    
Max Wind Speed 14 mph    
Max Gust Speed 18 mph    
Visibility 10 miles    
Events      
T = Trace of Precipitation, MM = Missing Value Source: NWS Daily Summary

Daily Weather History Graph

Daily Weather History Graph

Search for Another Location

Airport or City:

Trip Planner

Search our weather history database for the weather conditions in past years. The results will help you decide how hot, cold, wet, or windy it might be!

Date:

Astronomy

Aug. 08, 2013 Rise Set
Actual Time 6:12 AM PDT 7:50 PM PDT
Civil Twilight 5:45 AM PDT 8:17 PM PDT
Nautical Twilight 5:13 AM PDT 8:49 PM PDT
Astronomical Twilight 4:39 AM PDT 9:23 PM PDT
Moon 7:56 AM PDT (8/8) 8:40 PM PDT (8/8)
Length of Visible Light 14h 31m
Length of Day
13h 37m
Waxing Crescent, 3% of the Moon is Illuminated
Aug 8
Waxing Crescent
Aug 14
First Quarter
Aug 20
Full
Aug 28
Last Quarter
Sep 5
New

Hourly Weather History & Observations

Time (PDT) Temp. Dew Point Humidity Pressure Visibility Wind Dir Wind Speed Gust Speed Precip Events Conditions
12:55 AM 62.1 °F 57.0 °F 84% 30.01 in 10.0 mi Calm Calm - N/A   Overcast
1:55 AM 61.0 °F 55.9 °F 83% 29.99 in 10.0 mi Calm Calm - N/A   Overcast
2:55 AM 61.0 °F 55.9 °F 83% 29.99 in 10.0 mi East 3.5 mph - N/A   Overcast
3:55 AM 61.0 °F 55.9 °F 83% 29.98 in 10.0 mi Calm Calm - N/A   Overcast
4:55 AM 60.1 °F 55.9 °F 86% 29.98 in 10.0 mi Variable 3.5 mph - N/A   Overcast
5:55 AM 59.0 °F 55.9 °F 90% 29.99 in 8.0 mi Variable 3.5 mph - N/A   Overcast
6:14 AM 59.0 °F 55.4 °F 88% 29.97 in 8.0 mi Calm Calm - N/A   Overcast
6:55 AM 60.1 °F 55.9 °F 86% 30.01 in 7.0 mi Calm Calm - N/A   Overcast
7:09 AM 60.8 °F 55.4 °F 82% 29.98 in 7.0 mi NNE 3.5 mph - N/A   Overcast
7:55 AM 62.1 °F 55.9 °F 80% 30.01 in 10.0 mi ENE 3.5 mph - N/A   Overcast
8:50 AM 62.6 °F 57.2 °F 82% 30.00 in 10.0 mi Calm Calm - N/A   Overcast
8:55 AM 64.0 °F 57.0 °F 78% 30.02 in 10.0 mi Calm Calm - N/A   Overcast
9:55 AM 66.9 °F 57.0 °F 70% 30.02 in 10.0 mi Variable 5.8 mph - N/A   Scattered Clouds
10:55 AM 69.1 °F 57.0 °F 65% 30.01 in 10.0 mi Variable 4.6 mph - N/A   Clear
11:55 AM 72.0 °F 55.9 °F 57% 30.01 in 10.0 mi WSW 10.4 mph - N/A   Clear
12:55 PM 71.1 °F 57.0 °F 61% 30.01 in 10.0 mi SW 11.5 mph 18.4 mph N/A   Clear
1:55 PM 72.0 °F 57.0 °F 59% 30.00 in 10.0 mi WSW 9.2 mph - N/A   Clear
2:55 PM 72.0 °F 55.9 °F 57% 29.99 in 10.0 mi West 12.7 mph 17.3 mph N/A   Clear
3:55 PM 73.0 °F 55.9 °F 55% 29.97 in 10.0 mi WSW 11.5 mph - N/A   Clear
4:55 PM 71.1 °F 55.9 °F 59% 29.96 in 10.0 mi WSW 9.2 mph - N/A   Clear
5:55 PM 70.0 °F 57.0 °F 63% 29.95 in 10.0 mi WSW 9.2 mph - N/A   Clear
6:55 PM 66.9 °F 57.0 °F 70% 29.94 in 10.0 mi WSW 8.1 mph - N/A   Clear
7:55 PM 63.0 °F 55.9 °F 78% 29.94 in 10.0 mi SW 5.8 mph - N/A   Clear
8:47 PM 62.6 °F 57.2 °F 82% 29.93 in 10.0 mi Calm Calm - N/A   Overcast
8:55 PM 62.1 °F 57.0 °F 84% 29.96 in 10.0 mi WSW 3.5 mph - N/A   Overcast
9:55 PM 62.1 °F 57.0 °F 84% 29.96 in 10.0 mi Calm Calm - N/A   Overcast
10:55 PM 62.1 °F 55.9 °F 80% 29.96 in 10.0 mi Calm Calm - N/A   Overcast
11:55 PM 62.1 °F 55.9 °F 80% 29.95 in 10.0 mi Calm Calm - N/A   Mostly Cloudy